Location: *
(49.7115°N, 15.0136°E)
Time: 21:49:50
(UTC+00:00)

NOSS 3-2 (C) - Pass Details

Date: 27 February 2020
Orbit: 813 x 1399 km, 63.4° (Epoch: 06 March)

Event Time Altitude Azimuth Distance (km) Brightness Sun altitude
Rises 19:01:30 0° 316° (NW) 3,896 7.6 -23.8°
Reaches altitude 10° 19:04:02 10° 318° (NW) 3,017 6.8 -24.2°
Maximum altitude 19:11:23 76° 45° (NE) 1,285 3.9 -25.3°
Enters shadow 19:13:51 49° 118° (ESE) 1,612 4.1 -25.7°
